Back to catalog

SL-12 DEB

LostHEO
NORAD 43545·DEBRIS·🇷🇺 Russia

Launched Mar 1, 2010 from Baikonur Cosmodrome

Loading…

Next Passes (next 24 hours)

TLE

StaleSource: Space-Track

Epoch: Aug 14, 2018, 16:46 UTC

1 43545U 10007AE  18226.69930531  .00016435  00000-0  78176-1 0  9993
2 43545  65.5593 149.7047 5742565  44.3857 349.4041  4.14763232  2800

Track SL-12 DEB in real time with AllMySat

Download on the App Store